Flag for U.S.A. Weather past 2 weeks in Cincinnati, Ohio, U.S.A.

Now
67 °F

Fog.


Feels Like: 67 °F
Forecast: 62 / 83 °F
Wind: No wind

Location: Cincinnati Municipal Airport Lunken Field

Current Time: Aug 4, 2015 at 2:34:13 AM

Latest Report: Aug 4, 2015 at 1:53 AM


Visibility: 3 mi

Pressure: 29.92 "Hg

Humidity: 100%

Dew point: 67 °F

Location of CincinnatiLocation

Historic Weather in Cincinnati — Graph

°F

Cincinnati temperature yesterday

Maximum temperature yesterday: 86 °F (at 4:53 PM)
Minimum temperature yesterday: 63 °F (at 5:53 AM)
Average temperature yesterday: 71 °F

Past Weeks' High & Low Weather Summary

 TemperatureHumidityPressure
High92 °F (Jul 29, 2:53 PM)100% (Jul 20, 1:01 AM)30.06 "Hg (Jul 20, 1:01 AM)
Low58 °F (Jul 22, 5:53 AM)36% (Jul 31, 4:53 PM)29.72 "Hg (Jul 21, 4:53 AM)
Average75 °F77%29.95 "Hg
* Reported Jul 20 1:01 AM — Aug 4 12:53 AM, Cincinnati, Weather by CustomWeather, © 2015

Note: Actual official high and low records may vary slightly from our data, if they occured in-between our weather recording intervals... More about our weather records

Advertising

Cincinnati weather history for previous 24 hours

 ConditionsComfort  
Time TempWeatherWind HumidityBarometerVisibility
12:53 AM
Tue, Aug 4
67 °FFog.No wind100%29.92 "Hg6 mi
11:53 PM
Mon, Aug 3
68 °FFog.No wind100%29.91 "Hg6 mi
10:53 PM67 °FFog.No wind100%29.89 "Hg5 mi
9:53 PM70 °FPassing clouds.3 mphN/A29.88 "Hg10 mi
8:53 PM70 °FPassing clouds.3 mphN/A29.86 "Hg8 mi
7:53 PM70 °FBroken clouds.6 mphN/A29.85 "Hg10 mi
7:03 PM70 °FThunderstorms. Cloudy.5 mphN/A29.89 "Hg2 mi
5:58 PM81 °FThunderstorms. Scattered clouds.8 mph65%29.84 "Hg10 mi
4:53 PM86 °FPassing clouds.10 mph57%29.82 "Hg10 mi
3:53 PM85 °FSunny.8 mph59%29.83 "Hg10 mi
2:53 PM84 °FSunny.10 mph61%29.84 "Hg10 mi
1:53 PM82 °FSunny.10 mph63%29.85 "Hg10 mi
12:53 PM81 °FSunny.15 mph65%29.86 "Hg10 mi
11:53 AM77 °FSunny.14 mph69%29.87 "Hg10 mi
10:53 AM73 °FSunny.7 mph79%29.88 "Hg10 mi
9:53 AM70 °FSunny.8 mph81%29.88 "Hg10 mi
8:53 AM66 °FScattered clouds.7 mph93%29.88 "Hg10 mi
7:59 AM63 °FPassing clouds.6 mph97%29.90 "Hg10 mi
6:53 AM63 °FThunderstorms. Fog.7 mph97%29.96 "Hg6 mi
5:53 AM63 °FStrong thunderstorms. Fog.16 mph97%29.96 "Hg1 mi
4:53 AM64 °FClear.6 mph97%29.85 "Hg10 mi
3:53 AM64 °FPassing clouds.No wind97%29.85 "Hg10 mi
2:53 AM65 °FClear.No wind94%29.86 "Hg10 mi
Weather by CustomWeather, © 2015

See weather overviewHow to use our weather pages